Weather History for Jacksonville, IL

Change the Weather History Date:

Monday, July 22, 2013

  Actual Average (KSPI) Record (KSPI)
Temperature  
Mean Temperature 76 °F 76 °F  
Max Temperature 86 °F 86 °F 107 °F (1901)
Min Temperature 66 °F 65 °F 52 °F (2000)
Degree Days  
Heating Degree Days 0 0  
Month to date heating degree days 0  
Since 1 June heating degree days 15  
Since 1 July heating degree days 0  
Cooling Degree Days 10 11  
Month to date cooling degree days 242  
Year to date cooling degree days 586  
Since 1 June cooling degree days 482  
Growing Degree Days 26 (Base 50)    
Moisture  
Dew Point 70 °F    
Average Humidity 81    
Maximum Humidity 98    
Minimum Humidity 61    
Precipitation  
Precipitation 0.00 in 0.13 in 1.31 in (1993)
Month to date precipitation 2.86  
Year to date precipitation 21.33  
Snow  
Snow 0.00 in 0.00 in 0.00 in ()
Month to date snowfall 0.0  
Since 1 June snowfall 0.0  
Since 1 July snowfall 0.0  
Snow Depth -    
Sea Level Pressure  
Sea Level Pressure 29.85 in    
Wind  
Wind Speed 2 mph (SW)    
Max Wind Speed 9 mph    
Max Gust Speed -    
Visibility 8 miles    
Events Fog    
T = Trace of Precipitation, MM = Missing Value Source: NWS Daily Summary

Daily Weather History Graph

Daily Weather History Graph

Search for Another Location

Airport:

Trip Planner

Search our weather history database for the weather conditions in past years. The results will help you decide how hot, cold, wet, or windy it might be!

Date:

Astronomy

Jul. 22, 2013 Rise Set
Actual Time 5:51 AM CDT 8:23 PM CDT
Civil Twilight 5:20 AM CDT 8:54 PM CDT
Nautical Twilight 4:41 AM CDT 9:32 PM CDT
Astronomical Twilight 3:58 AM CDT 10:15 PM CDT
Moon 8:09 PM CDT 5:47 AM CDT
Length of Visible Light 15h 33m
Length of Day
14h 31m
Full, 100% of the Moon is Illuminated
Jul 22
Full
Jul 22
Full
Jul 29
Last Quarter
Aug 6
New
Aug 14
First Quarter

Hourly Weather History & Observations

Time (CDT) Temp. Heat Index Dew Point Humidity Pressure Visibility Wind Dir Wind Speed Gust Speed Precip Events Conditions
12:15 AM 68.0 °F - 66.2 °F 94% 29.88 in 10.0 mi SE 5.8 mph - N/A   Overcast
12:35 AM 68.0 °F - 66.2 °F 94% 29.88 in 10.0 mi Calm Calm - N/A   Overcast
12:55 AM 68.0 °F - 66.2 °F 94% 29.88 in 10.0 mi Calm Calm - N/A   Overcast
1:15 AM 68.0 °F - 66.2 °F 94% 29.87 in 10.0 mi Calm Calm - N/A   Overcast
1:35 AM 68.0 °F - 66.2 °F 94% 29.86 in 10.0 mi Calm Calm - N/A   Overcast
1:55 AM 67.6 °F - 66.2 °F 95% 29.86 in 10.0 mi Calm Calm - N/A   Scattered Clouds
2:15 AM 66.6 °F - 65.3 °F 96% 29.87 in 7.0 mi North 3.5 mph - N/A   Clear
2:35 AM 66.2 °F - 65.3 °F 97% 29.86 in 7.0 mi Calm Calm - N/A   Clear
2:55 AM 66.4 °F - 65.3 °F 96% 29.86 in 5.0 mi Calm Calm - N/A   Clear
3:15 AM 66.0 °F - 64.8 °F 96% 29.85 in 3.0 mi Calm Calm - N/A   Scattered Clouds
3:35 AM 66.2 °F - 65.3 °F 97% 29.84 in 4.0 mi Calm Calm - N/A   Mostly Cloudy
3:55 AM 67.3 °F - 66.4 °F 97% 29.85 in 0.5 mi Calm Calm - N/A Fog Fog
4:15 AM 67.5 °F - 66.6 °F 97% 29.84 in 0.2 mi Calm Calm - N/A Fog Fog
4:35 AM 67.5 °F - 66.6 °F 97% 29.85 in 0.2 mi Calm Calm - N/A Fog Fog
4:55 AM 67.3 °F - 66.4 °F 97% 29.85 in 0.5 mi Calm Calm - N/A Fog Fog
5:15 AM 67.1 °F - 66.2 °F 97% 29.85 in 0.8 mi Calm Calm - N/A   Overcast
5:35 AM 66.9 °F - 66.2 °F 98% 29.85 in 0.5 mi Calm Calm - N/A Fog Fog
5:55 AM 67.3 °F - 66.4 °F 97% 29.86 in 0.5 mi Calm Calm - N/A Fog Fog
6:15 AM 67.5 °F - 66.6 °F 97% 29.86 in 0.2 mi Calm Calm - N/A Fog Fog
6:35 AM 67.3 °F - 66.6 °F 98% 29.87 in 0.2 mi Calm Calm - N/A Fog Fog
6:55 AM 67.5 °F - 66.7 °F 98% 29.87 in 0.2 mi Calm Calm - N/A Fog Fog
7:15 AM 68.0 °F - 67.1 °F 97% 29.87 in 0.2 mi Calm Calm - N/A Fog Fog
7:35 AM 68.9 °F - 68.0 °F 97% 29.87 in 0.8 mi Calm Calm - N/A   Overcast
7:55 AM 70.0 °F - 69.1 °F 97% 29.87 in 1.5 mi Calm Calm - N/A   Overcast
8:35 AM 71.1 °F - 70.2 °F 97% 29.88 in 2.5 mi SW 5.8 mph - N/A   Overcast
9:35 AM 73.0 °F - 72.1 °F 97% 29.87 in 10.0 mi South 3.5 mph - N/A   Scattered Clouds
9:55 AM 75.6 °F - 70.7 °F 85% 29.88 in 10.0 mi SW 3.5 mph - N/A   Scattered Clouds
10:15 AM 77.2 °F - 70.3 °F 79% 29.88 in 10.0 mi West 3.5 mph - N/A   Scattered Clouds
10:35 AM 77.9 °F - 69.6 °F 76% 29.88 in 10.0 mi WSW 3.5 mph - N/A   Scattered Clouds
10:55 AM 78.8 °F - 69.6 °F 73% 29.89 in 10.0 mi West 3.5 mph - N/A   Scattered Clouds
11:15 AM 79.7 °F - 70.3 °F 73% 29.89 in 10.0 mi SW 5.8 mph - N/A   Scattered Clouds
11:35 AM 79.9 °F - 69.1 °F 69% 29.88 in 10.0 mi West 5.8 mph - N/A   Scattered Clouds
11:55 AM 80.6 °F 83.6 °F 69.1 °F 68% 29.87 in 10.0 mi SW 3.5 mph - N/A   Clear
12:15 PM 81.0 °F 84.1 °F 69.1 °F 67% 29.87 in 10.0 mi Calm Calm - N/A   Clear
12:35 PM 81.7 °F 85.2 °F 69.8 °F 67% 29.86 in 10.0 mi WSW 3.5 mph - N/A   Clear
12:55 PM 82.2 °F 85.8 °F 69.4 °F 65% 29.85 in 10.0 mi West 4.6 mph - N/A   Scattered Clouds
1:15 PM 82.6 °F 86.4 °F 69.8 °F 65% 29.85 in 10.0 mi West 5.8 mph - N/A   Clear
1:35 PM 83.5 °F 88.0 °F 70.7 °F 65% 29.85 in 10.0 mi SW 8.1 mph - N/A   Scattered Clouds
1:55 PM 84.0 °F 89.0 °F 71.2 °F 65% 29.85 in 10.0 mi SSW 5.8 mph - N/A   Clear
2:15 PM 83.8 °F 88.3 °F 70.3 °F 64% 29.85 in 10.0 mi WSW 5.8 mph - N/A   Clear
2:35 PM 84.6 °F 89.4 °F 70.5 °F 63% 29.85 in 10.0 mi SW 6.9 mph - N/A   Clear
2:55 PM 84.4 °F 89.7 °F 71.4 °F 65% 29.85 in 10.0 mi SSW 9.2 mph - N/A   Clear
3:15 PM 85.1 °F 90.4 °F 71.4 °F 63% 29.85 in 10.0 mi WSW 5.8 mph - N/A   Clear
3:35 PM 84.7 °F 90.0 °F 71.2 °F 64% 29.85 in 10.0 mi SW 6.9 mph - N/A   Scattered Clouds
3:55 PM 85.3 °F 91.1 °F 71.8 °F 64% 29.84 in 10.0 mi SW 6.9 mph - N/A   Clear
4:15 PM 85.3 °F 90.4 °F 71.1 °F 62% 29.84 in 10.0 mi SW 6.9 mph - N/A   Scattered Clouds
4:35 PM 85.6 °F 90.8 °F 70.7 °F 61% 29.84 in 10.0 mi SW 6.9 mph - N/A   Scattered Clouds
4:55 PM 85.8 °F 91.5 °F 71.2 °F 62% 29.83 in 10.0 mi SW 8.1 mph - N/A   Scattered Clouds
5:15 PM 85.3 °F 90.8 °F 71.2 °F 63% 29.82 in 10.0 mi SW 6.9 mph - N/A   Clear
5:35 PM 84.9 °F 90.7 °F 71.8 °F 65% 29.82 in 10.0 mi SW 3.5 mph - N/A   Clear
5:55 PM 85.5 °F 91.1 °F 71.4 °F 63% 29.82 in 10.0 mi SW 4.6 mph - N/A   Clear
6:15 PM 84.6 °F 90.0 °F 71.8 °F 65% 29.81 in 10.0 mi SW 4.6 mph - N/A   Clear
6:35 PM 84.7 °F 91.0 °F 72.5 °F 67% 29.80 in 10.0 mi Calm Calm - N/A   Clear
6:55 PM 84.9 °F 90.4 °F 71.6 °F 64% 29.80 in 10.0 mi Calm Calm - N/A   Clear
7:15 PM 84.9 °F 91.1 °F 72.3 °F 66% 29.80 in 10.0 mi Calm Calm - N/A   Clear
7:35 PM 83.7 °F 89.7 °F 73.0 °F 70% 29.80 in 10.0 mi Calm Calm - N/A   Clear
7:55 PM 84.0 °F 90.2 °F 73.0 °F 69% 29.80 in 10.0 mi Calm Calm - N/A   Clear
8:15 PM 80.8 °F 85.6 °F 73.4 °F 78% 29.80 in 10.0 mi Calm Calm - N/A   Clear
8:35 PM 79.2 °F - 72.9 °F 81% 29.80 in 10.0 mi Calm Calm - N/A   Clear
8:55 PM 78.6 °F - 72.5 °F 81% 29.81 in 10.0 mi Calm Calm - N/A   Clear
9:15 PM 78.3 °F - 72.3 °F 82% 29.82 in 10.0 mi Calm Calm - N/A   Clear
9:35 PM 78.3 °F - 72.9 °F 83% 29.82 in 10.0 mi South 3.5 mph - N/A   Clear
9:55 PM 78.6 °F - 72.5 °F 81% 29.83 in 10.0 mi South 3.5 mph - N/A   Clear
10:15 PM 78.3 °F - 72.5 °F 82% 29.83 in 10.0 mi South 4.6 mph - N/A   Clear
10:35 PM 78.3 °F - 72.1 °F 81% 29.84 in 10.0 mi South 3.5 mph - N/A   Clear
10:55 PM 77.4 °F - 72.1 °F 84% 29.85 in 10.0 mi Calm Calm - N/A   Clear
11:15 PM 76.5 °F - 72.0 °F 86% 29.87 in 10.0 mi Calm Calm - N/A   Clear
11:35 PM 74.7 °F - 72.1 °F 92% 29.87 in 10.0 mi Calm Calm - N/A   Clear
11:55 PM 75.0 °F - 72.9 °F 93% 29.86 in 10.0 mi Calm Calm - N/A   Scattered Clouds